LAN024 SCQP-SCEL

Flight info

Callsign LAN024
Flight time N/A
Altitude 36000
Route KETIR3C KETIR UQ802 EROLO EROLO8A
Aircraft A321/M-SDE3FGHIRWY/LB1

Departure

Time 2026-04-24 16:53
Airport La Araucanía International Airport (SCQP)

Arrival

Time N/A
Airport Comodoro Arturo Merino Benítez International Airport (SCEL)
Time Latitude Longitude Altitude Speed Heading
2026-04-24 16:53 -38.70758 -72.58269 8797 ft 289 kts
2026-04-24 16:53 -38.68778 -72.57729 9541 ft 294 kts
2026-04-24 16:53 -38.66755 -72.57175 10239 ft 302 kts
2026-04-24 16:54 -38.64623 -72.56596 10430 ft 325 kts
2026-04-24 16:54 -38.62336 -72.55978 10699 ft 344 kts
2026-04-24 16:54 -38.59974 -72.55334 11290 ft 351 kts
2026-04-24 16:54 -38.57573 -72.54670 11965 ft 355 kts
2026-04-24 16:55 -38.55147 -72.53997 12667 ft 359 kts
2026-04-24 16:55 -38.52694 -72.53317 13358 ft 363 kts
2026-04-24 16:55 -38.50216 -72.52634 14040 ft 366 kts
2026-04-24 16:55 -38.47711 -72.51949 14649 ft 370 kts
2026-04-24 16:56 -38.45186 -72.51261 15298 ft 373 kts
2026-04-24 16:56 -38.42641 -72.50567 15941 ft 375 kts
2026-04-24 16:56 -38.40108 -72.49877 16562 ft 379 kts
2026-04-24 16:56 -38.37522 -72.49174 17167 ft 382 kts
2026-04-24 16:57 -38.34913 -72.48463 17781 ft 385 kts
2026-04-24 16:57 -38.32284 -72.47747 18386 ft 388 kts
2026-04-24 16:57 -38.29633 -72.47027 18931 ft 391 kts
2026-04-24 16:57 -38.26965 -72.46301 19457 ft 394 kts
2026-04-24 16:58 -38.24275 -72.45573 19953 ft 397 kts
2026-04-24 16:58 -38.21565 -72.44827 20460 ft 400 kts
2026-04-24 16:58 -38.18837 -72.44060 20954 ft 403 kts
2026-04-24 16:58 -38.16091 -72.43282 21452 ft 406 kts
2026-04-24 16:59 -38.13325 -72.42499 21944 ft 409 kts
2026-04-24 16:59 -38.10536 -72.41713 22414 ft 412 kts
2026-04-24 16:59 -38.04899 -72.40133 23375 ft 418 kts
2026-04-24 17:00 -38.02050 -72.39338 23831 ft 421 kts
2026-04-24 17:00 -37.96332 -72.37744 24563 ft 426 kts
2026-04-24 17:00 -37.93425 -72.36934 24954 ft 429 kts
2026-04-24 17:01 -37.87570 -72.35308 25742 ft 433 kts
2026-04-24 17:01 -37.84622 -72.34493 26124 ft 435 kts
2026-04-24 17:02 -37.79647 -72.33118 26755 ft 439 kts
2026-04-24 17:02 -37.75686 -72.32021 27228 ft 441 kts
2026-04-24 17:02 -37.72680 -72.31192 27599 ft 443 kts
2026-04-24 17:02 -37.69657 -72.30358 27962 ft 446 kts
2026-04-24 17:03 -37.63567 -72.28669 28662 ft 450 kts
2026-04-24 17:03 -37.60505 -72.27774 29002 ft 453 kts
2026-04-24 17:03 -37.57435 -72.26833 29345 ft 455 kts
2026-04-24 17:04 -37.54355 -72.25865 29658 ft 458 kts
2026-04-24 17:04 -37.49201 -72.24247 30196 ft 460 kts
2026-04-24 17:04 -37.46084 -72.23289 30472 ft 462 kts
2026-04-24 17:05 -37.42952 -72.22337 30725 ft 464 kts
2026-04-24 17:05 -37.39803 -72.21384 30990 ft 466 kts
2026-04-24 17:05 -37.33476 -72.19465 31641 ft 467 kts
2026-04-24 17:06 -37.30322 -72.18505 32025 ft 466 kts
2026-04-24 17:06 -37.24023 -72.16590 32773 ft 465 kts
2026-04-24 17:06 -37.20883 -72.15638 33148 ft 464 kts
2026-04-24 17:07 -37.17746 -72.14692 33518 ft 464 kts
2026-04-24 17:07 -37.14612 -72.13748 33888 ft 463 kts
2026-04-24 17:07 -37.08355 -72.11861 34549 ft 462 kts
2026-04-24 17:08 -37.02147 -72.09991 35094 ft 462 kts
2026-04-24 17:08 -36.99026 -72.09049 35359 ft 461 kts
2026-04-24 17:08 -36.95909 -72.08112 35626 ft 461 kts
2026-04-24 17:09 -36.89666 -72.06238 36151 ft 461 kts
2026-04-24 17:09 -36.83440 -72.04376 36264 ft 458 kts
2026-04-24 17:10 -36.70786 -72.00593 36261 ft 474 kts
2026-04-24 17:12 -36.45166 -71.92970 36252 ft 474 kts